Regional Weather Roundup
Issued by NWS

Current Version | Previous Version | Text Only | Print | Product List | Glossary On
Versions: 1 2 3 4 5 6 7 8 9 10 11 12 13 14 15 16 17 18 19 20 21 22 23 24 25 26 27 28 29 30 31 32 33 34 35 36 37 38 39 40 41 42 43 44 45 46 47 48 49 50
000
ASUS43 KFSD 241110
RWRSD

WEATHER ROUNDUP FOR SOUTH DAKOTA
NATIONAL WEATHER SERVICE SIOUX FALLS SD
600 AM CDT THU AUG 24 2017

NOTE: "FAIR" INDICATES FEW OR NO CLOUDS BELOW 12,000 FEET WITH NO
SIGNIFICANT WEATHER AND/OR OBSTRUCTIONS TO VISIBILITY.


SDZ001>005-009-010-012>017-241200-
NORTHWEST AND NORTH CENTRAL SOUTH DAKOTA

CITY           SKY/WX    TMP DP  RH WIND       PRES   REMARKS
BUFFALO          N/A     58  56  93 E6        29.93S
FAITH            N/A     59  58  96 CALM      29.98R
MOBRIDGE       CLEAR     58  56  93 E7        29.94S
$$

SDZ012>016-024>037-041>051-057-063-072>074-241200-
SOUTHWEST AND SOUTH CENTRAL SOUTH DAKOTA

CITY           SKY/WX    TMP DP  RH WIND       PRES   REMARKS
RAPID CTY ARPT CLEAR     58  54  86 N6        29.99F
PIERRE         CLEAR     59  57  93 NE7       29.93R
CUSTER         CLEAR     58  46  64 CALM      30.11S
ELLSWORTH AFB  CLEAR     61  54  77 W6        29.99S
PHILIP         CLEAR     56  56 100 N5        29.94S
PINE RIDGE     MOCLDY    62  61  96 CALM      29.97S
SPEARFISH      FAIR      64  50  59 CALM      30.01S
WINNER         FAIR      64  62  93 W5        29.91R
$$

SDZ004>011-016>023-039-040-241200-
NORTHEAST SOUTH DAKOTA

CITY           SKY/WX    TMP DP  RH WIND       PRES   REMARKS
ABERDEEN       CLEAR     59  56  89 E13       29.98R
WATERTOWN      CLEAR     56  54  93 E12G18    30.01S
BROOKINGS      CLOUDY    63  58  83 SE14      30.00S
SISSETON         N/A     53  51  93 S7        30.04S
$$

SDZ017-020-022-023-036>040-048>070-241200-
SOUTHEAST SOUTH DAKOTA

CITY           SKY/WX    TMP DP  RH WIND       PRES   REMARKS
SIOUX FALLS    CLOUDY    65  59  81 SE13      29.98F
HURON          PTCLDY    61  59  93 E9        29.94R
CHAMBERLAIN    CLOUDY    61  60  97 N5        29.89R
MITCHELL       CLEAR     63  59  87 SE8       29.91S
YANKTON        TSTM      65  58  78 S17G24    29.94F
$$

ABBREVIATIONS USED IN REMARKS
   TC - TEMPERATURE IN CELSIUS
  WCI - WIND CHILL INDEX
   HX - HEAT INDEX
  VSB - VISIBILITY




USA.gov is the U.S. government's official web portal to all federal, state and local government web resources and services.